Location: Los Angeles
(34.0542°N, 118.2411°W)
Time: 15:32:24
(UTC-07:00)

Daily predictions for brighter satellites

Satellite Brightness Start Highest point End
(mag) Time Altitude Azimuth Time Altitude Azimuth Time Altitude Azimuth
Cosmos 2278 Rocket 2.3 19:26:15 10° SSW 19:31:55 89° ESE 19:37:37 10° NNE
SJ-6B 2.8 19:32:50 10° SSE 19:36:26 52° ENE 19:40:05 10° N
ATLAS 5 CENTAUR R/B 2.5 19:34:29 10° S 19:38:28 30° ESE 19:42:40 10° NE
Cosmos 2344 4.1 19:31:07 10° SW 19:38:46 70° WNW 19:47:03 10° NNE
Yuri Rocket 4.1 19:34:58 10° WSW 19:39:12 35° S 19:43:01 10° ESE
NOAA 12 4.3 19:37:19 10° SSE 19:42:38 83° WSW 19:47:57 10° NNW
Timation 1 Rocket 4.4 19:38:31 10° S 19:44:25 64° ESE 19:50:22 10° NNE
H-2A R/B 3.6 19:41:19 10° SE 19:44:45 31° ENE 19:48:14 10° N
Cosmos 2123 Rocket 4.1 19:40:21 10° N 19:46:36 61° E 19:52:46 10° SSE
CZ-3C R/B 4.0 19:40:51 10° WSW 19:46:41 15° SW 19:49:48 10° SSW
Cosmos 2297 3.8 19:43:37 10° S 19:49:08 54° ESE 19:54:42 10° NNE
Resurs 1-3 4.3 19:48:14 10° SE 19:52:10 33° ENE 19:56:07 10° N
Cosmos 1125 Rocket 3.4 19:51:43 10° S 19:56:50 64° ESE 20:01:59 10° NNE
FengYun 1-2 T 4.2 19:52:19 10° SSE 19:57:49 68° ENE 20:03:25 10° N
Delta 128 4.3 19:55:43 10° WSW 20:00:00 38° S 20:03:09 16° ESE
HJ-1C 3.3 19:57:10 10° SSE 20:00:32 76° E 20:03:57 10° N
Cosmos 1758 3.2 19:59:11 10° S 20:03:06 62° E 20:07:02 10° NNE
SeaSat 1 2.5 19:59:09 10° SE 20:04:00 63° ENE 20:08:53 10° NNW
Geosat 4.2 20:00:15 10° NE 20:05:07 49° ESE 20:09:58 10° S
Cosmos 2082 Rocket 2.9 20:00:51 10° N 20:06:01 35° ENE 20:09:47 17° ESE
GPS 2-05 Rocket1 2.8 20:03:05 10° W 20:06:38 86° N 20:09:03 20° ENE
ALOS 2.4 20:02:48 10° S 20:07:28 80° WSW 20:12:10 10° NNW
Cosmos 1953 2.2 20:06:07 10° S 20:10:10 70° E 20:14:13 10° NNE
Cosmos 1271 Rocket 3.5 20:06:39 10° SSE 20:10:11 31° E 20:13:46 10° NNE
Meteor 1-24 Rocket 4.4 20:05:37 10° NNW 20:11:04 58° W 20:16:43 10° S
SL-27 R/B 4.0 20:07:56 10° NNW 20:11:20 39° WSW 20:14:44 10° S
SAR-Lupe-4 4.3 20:15:34 26° ESE 20:16:41 32° ENE 20:19:54 10° N
Helios 1B rocket 2.7 20:13:05 10° NNE 20:17:01 42° E 20:20:54 10° S
Abrixas 3.1 20:15:01 10° NW 20:17:40 35° NE 20:18:13 32° ENE
Tiangong 1 2.0 20:16:15 10° WNW 20:19:01 37° SW 20:20:18 23° SSE
Cosmos 1459 Rocket 4.3 20:13:45 10° SSE 20:19:35 42° E 20:25:21 10° NNE
Cosmos 1939 Rocket 4.5 20:20:09 19° ENE 20:20:09 19° ENE 20:22:48 10° NNE
Okean 3 Rocket 3.6 20:15:56 10° N 20:20:21 81° W 20:24:46 10° S
OAO 2 Rocket 4.1 20:17:37 10° SW 20:22:19 36° SSE 20:24:21 26° ESE
Meteor 1-29 3.5 20:19:28 10° NNE 20:22:42 35° E 20:23:14 33° ESE
Cosmos 1076 Rocket 3.4 20:19:43 10° N 20:23:57 68° E 20:28:04 10° SSE
SWAS 4.4 20:19:52 10° SSW 20:24:08 86° ESE 20:28:27 10° NNE
Cosmos 1447 Rocket 4.4 20:18:01 10° N 20:24:08 68° E 20:30:15 10° SSE
CZ-4B DEB 4.5 20:25:30 18° NE 20:25:30 18° NE 20:26:52 10° NNE
Cosmos 1674 3.0 20:21:47 10° N 20:25:25 42° E 20:26:29 33° ESE
Cosmos 2173 Rocket 4.2 20:20:51 10° SSE 20:26:41 48° E 20:32:37 10° NNE
COSMOS 2487 2.6 20:26:52 10° N 20:30:21 50° ENE 20:30:55 44° ESE
Helios 1A 3.1 20:29:49 30° SE 20:31:31 51° ENE 20:35:34 10° N
ISS -2.8 20:29:26 10° WSW 20:32:34 45° NW 20:34:47 17° NNE
Lacrosse 5 rocket 2.9 20:31:10 10° N 20:33:53 18° NE 20:33:58 18° NE
USA 186 3.4 20:36:23 16° N 20:36:23 16° N 20:36:58 10° N
SAR-Lupe-1 4.2 20:35:10 48° E 20:35:25 49° ENE 20:38:54 10° N
Meteor 1-4 Rocket 4.3 20:37:50 10° SW 20:40:59 33° W 20:44:10 10° NNW
CZ-2D R/B 3.6 20:38:55 13° S 20:42:17 64° W 20:46:09 10° NNW
Cosmos 1818 3.6 20:37:12 10° NNW 20:42:40 81° WSW 20:45:51 25° SSE
GP-B 3.0 20:38:27 10° S 20:42:53 86° E 20:47:20 10° N
Cosmos 1269 Rocket 3.9 20:40:22 10° NNW 20:45:41 88° ENE 20:48:47 26° SSE
Cosmos 1766 Rocket 3.5 20:41:18 10° N 20:45:48 87° E 20:48:15 26° S
Cosmos-2242 3.0 20:43:11 10° S 20:47:25 80° W 20:51:41 10° N
Delta 168 4.3 20:45:29 10° SW 20:47:54 19° SSW 20:47:54 19° SSW
Resurs 01 Rocket 2.9 20:46:38 10° SSW 20:50:45 39° W 20:54:55 10° NNW
Cosmos 158 Rocket 3.9 20:53:24 10° NNW 20:58:36 84° WSW 21:00:40 38° S
Cosmos 2016 Rocket 3.9 20:52:29 10° S 20:58:38 64° E 21:04:43 10° NNE
Cosmos 1470 3.7 21:00:09 10° SSW 21:04:00 48° W 21:07:51 10° N
Cosmos 1733 4.3 21:03:19 10° SSW 21:07:00 45° W 21:10:44 10° N
H-2A R/B (2) 3.1 21:03:47 10° WSW 21:07:11 37° S 21:08:06 35° SSE
Cosmos 1725 Rocket 4.1 21:08:00 49° E 21:08:00 49° E 21:13:36 10° NNE
Aurora 2 Rocket 4.0 21:02:14 10° WSW 21:08:21 34° S 21:08:34 33° S
USA 215 3.1 21:02:21 10° NE 21:08:54 89° SE 21:15:26 10° SW
Cosmos 1833 Rocket 2.9 21:06:12 10° NNW 21:11:47 69° WSW 21:13:40 42° S
Cosmos 1743 Rocket 4.0 21:12:38 10° N 21:16:07 54° N 21:16:07 54° N
Cosmos 1340 Rocket 3.6 21:15:24 10° NNW 21:18:38 49° NW 21:18:38 49° NW
SL-08 R/B 4.4 21:18:13 42° S 21:20:34 81° E 21:27:00 10° N
ATLAS 5 CENTAUR R/B 3.8 21:19:07 10° WSW 21:23:04 26° NW 21:27:16 10° N
Envisat 3.3 21:26:08 55° SW 21:26:50 61° W 21:31:52 10° NNW
Tsikada Rocket 4.4 21:25:45 10° N 21:30:37 50° NE 21:30:37 50° NE
H-2A R/B 4.4 21:42:52 13° NNE 21:42:52 13° NNE 21:43:39 10° NNE
ERS-1 Rocket 3.9 21:43:18 43° NNW 21:43:18 43° NNW 21:46:40 10° NNW
Gblst 52 Del rocket 4.5 21:36:58 10° WSW 21:42:52 64° NW 21:42:52 64° NW
Cosmos 2082 Rocket 3.9 21:45:12 10° NW 21:49:52 27° WSW 21:51:42 22° SW
